Weather History for West Yellowstone, MT

Change the Weather History Date:

Sunday, November 11, 2012

  Actual Average Record
Temperature  
Mean Temperature 2 °F -  
Max Temperature 17 °F 37 °F 46 °F (2013)
Min Temperature -13 °F 15 °F -13 °F (2012)
Degree Days  
Heating Degree Days 63    
Moisture  
Dew Point -    
Average Humidity    
Maximum Humidity    
Minimum Humidity    
Precipitation  
Precipitation 0.00 in - - ()
Sea Level Pressure  
Sea Level Pressure 30.04 in    
Wind  
Wind Speed 4 mph (SW)    
Max Wind Speed 17 mph    
Max Gust Speed 24 mph    
Visibility 9 miles    
Events Snow    
Averages and records for this station are not official NWS values.
T = Trace of Precipitation, MM = Missing Value Source: NWS Daily Summary

Daily Weather History Graph

Daily Weather History Graph

Search for Another Location

Airport:

Trip Planner

Search our weather history database for the weather conditions in past years. The results will help you decide how hot, cold, wet, or windy it might be!

Date:

Astronomy

Nov. 11, 2012 Rise Set
Actual Time 7:16 AM MST 4:59 PM MST
Civil Twilight 6:45 AM MST 5:31 PM MST
Nautical Twilight 6:10 AM MST 6:06 PM MST
Astronomical Twilight 5:35 AM MST 6:40 PM MST
Moon 4:29 AM MST (11/11) 3:29 PM MST (11/11)
Length of Visible Light 10h 45m
Length of Day
9h 43m
Waning Crescent, 7% of the Moon is Illuminated
Nov 11
Waning Crescent
Nov 13
New
Nov 20
First Quarter
Nov 28
Full
Dec 6
Last Quarter

Hourly Weather History & Observations

Time (MST) Temp. Windchill Dew Point Humidity Pressure Visibility Wind Dir Wind Speed Gust Speed Precip Events Conditions
12:10 AM -4.0 °F - - N/A% 29.86 in 10.0 mi Calm Calm - N/A   Overcast
12:30 AM -4.0 °F - - N/A% 29.87 in 10.0 mi Calm Calm - N/A   Overcast
12:50 AM -7.6 °F - - N/A% 29.88 in 10.0 mi Calm Calm - N/A   Overcast
1:10 AM -7.6 °F - - N/A% 29.88 in 10.0 mi Calm Calm - N/A   Mostly Cloudy
1:30 AM -7.6 °F - - N/A% 29.88 in 10.0 mi Calm Calm - N/A   Mostly Cloudy
1:50 AM -9.4 °F - - N/A% 29.89 in 10.0 mi Calm Calm - N/A   Overcast
2:10 AM -9.4 °F - - N/A% 29.89 in 10.0 mi Calm Calm - N/A   Overcast
2:30 AM -7.6 °F - - N/A% 29.89 in 10.0 mi Calm Calm - N/A   Overcast
2:50 AM -5.8 °F - - N/A% 29.89 in 10.0 mi Calm Calm - N/A   Overcast
3:10 AM -7.6 °F - - N/A% 29.90 in 10.0 mi Calm Calm - N/A   Mostly Cloudy
3:30 AM -9.4 °F - - N/A% 29.90 in 10.0 mi Calm Calm - N/A   Scattered Clouds
3:50 AM -9.4 °F - - N/A% 29.90 in 10.0 mi Calm Calm - N/A   Partly Cloudy
4:30 AM -11.2 °F -20.6 °F - N/A% 29.91 in 10.0 mi SSE 3.5 mph - N/A   Scattered Clouds
4:50 AM -11.2 °F - - N/A% 29.92 in 10.0 mi Calm Calm - N/A   Mostly Cloudy
5:10 AM - - - N/A% 29.92 in 10.0 mi Calm Calm - N/A   Mostly Cloudy
5:30 AM -13.0 °F - - N/A% 29.93 in 10.0 mi Calm Calm - N/A Snow Light Snow
5:50 AM -11.2 °F - - N/A% 29.94 in 9.0 mi Calm Calm - N/A   Mostly Cloudy
6:30 AM -11.2 °F - - N/A% 29.94 in 10.0 mi Calm Calm - N/A   Mostly Cloudy
6:50 AM - - - N/A% 29.94 in 10.0 mi Calm Calm - N/A   Mostly Cloudy
7:10 AM -13.0 °F - - N/A% 29.96 in 10.0 mi Calm Calm - N/A   Mostly Cloudy
7:30 AM -13.0 °F - - N/A% 29.97 in 10.0 mi Calm Calm - N/A   Overcast
7:50 AM -11.2 °F - - N/A% 29.98 in 10.0 mi Calm Calm - N/A   Scattered Clouds
8:10 AM -11.2 °F - - N/A% 29.98 in 10.0 mi Calm Calm - N/A   Scattered Clouds
8:30 AM -7.6 °F - - N/A% 29.99 in 10.0 mi Calm Calm - N/A   Mostly Cloudy
8:50 AM -4.0 °F -12.4 °F - N/A% 30.00 in 10.0 mi NNE 3.5 mph - N/A   Mostly Cloudy
9:10 AM 1.4 °F - - N/A% 30.00 in 10.0 mi Calm Calm - N/A   Mostly Cloudy
9:30 AM 3.2 °F - - N/A% 30.01 in 10.0 mi Calm Calm - N/A   Mostly Cloudy
9:50 AM 6.8 °F -2.0 °F - N/A% 30.01 in 10.0 mi NE 4.6 mph - N/A   Mostly Cloudy
10:10 AM 8.6 °F 2.0 °F - N/A% 30.01 in 10.0 mi WSW 3.5 mph - N/A   Mostly Cloudy
10:30 AM 14.0 °F -0.2 °F - N/A% 30.02 in 10.0 mi SW 12.7 mph 16.1 mph N/A   Overcast
11:10 AM 14.0 °F 1.2 °F - N/A% 30.02 in 10.0 mi WSW 10.4 mph 18.4 mph N/A   Overcast
11:30 AM 15.8 °F -0.2 °F - N/A% 30.02 in 10.0 mi SW 17.3 mph 21.9 mph N/A   Overcast
11:50 AM 15.8 °F 1.4 °F - N/A% 30.03 in 10.0 mi SW 13.8 mph 23.0 mph N/A   Overcast
12:10 PM 15.8 °F 1.4 °F - N/A% 30.03 in 10.0 mi WSW 13.8 mph 21.9 mph N/A   Overcast
12:30 PM 15.8 °F 0.9 °F - N/A% 30.03 in 10.0 mi WSW 15.0 mph 24.2 mph N/A   Mostly Cloudy
12:50 PM 15.8 °F 0.9 °F - N/A% 30.04 in 10.0 mi SW 15.0 mph 24.2 mph N/A   Mostly Cloudy
1:10 PM 17.6 °F 2.2 °F - N/A% 30.04 in 10.0 mi SW 17.3 mph 23.0 mph N/A   Scattered Clouds
1:30 PM 17.6 °F 3.7 °F - N/A% 30.05 in 10.0 mi WSW 13.8 mph 19.6 mph N/A   Mostly Cloudy
1:50 PM 17.6 °F 4.3 °F - N/A% 30.05 in 10.0 mi WSW 12.7 mph 19.6 mph N/A   Mostly Cloudy
2:10 PM 17.6 °F 5.0 °F - N/A% 30.06 in 10.0 mi West 11.5 mph 20.7 mph N/A   Partly Cloudy
2:30 PM 17.6 °F 5.0 °F - N/A% 30.06 in 10.0 mi WSW 11.5 mph 18.4 mph N/A   Clear
2:50 PM 17.6 °F 3.2 °F - N/A% 30.07 in 10.0 mi SW 15.0 mph 18.4 mph N/A   Mostly Cloudy
3:10 PM 17.6 °F 5.7 °F - N/A% 30.08 in 10.0 mi SSW 10.4 mph 16.1 mph N/A   Overcast
3:30 PM 15.8 °F 4.2 °F - N/A% 30.09 in 10.0 mi SW 9.2 mph - N/A   Mostly Cloudy
3:50 PM 17.6 °F 5.0 °F - N/A% 30.10 in 10.0 mi SW 11.5 mph 20.7 mph N/A   Partly Cloudy
4:10 PM 15.8 °F 2.1 °F - N/A% 30.11 in 10.0 mi SW 12.7 mph 16.1 mph N/A   Partly Cloudy
4:30 PM 15.8 °F 2.7 °F - N/A% 30.12 in 3.0 mi SSW 11.5 mph - N/A Snow Light Snow
4:50 PM 14.0 °F 3.9 °F - N/A% 30.13 in 7.0 mi SW 6.9 mph - N/A Snow Light Snow
5:10 PM 14.0 °F 2.9 °F - N/A% 30.14 in 10.0 mi SSW 8.1 mph - N/A   Mostly Cloudy
5:30 PM 14.0 °F 3.9 °F - N/A% 30.14 in 9.0 mi SW 6.9 mph - N/A   Scattered Clouds
5:50 PM 14.0 °F 1.2 °F - N/A% 30.16 in 10.0 mi SW 10.4 mph - N/A Snow Light Snow
6:10 PM 14.0 °F 1.2 °F - N/A% 30.17 in 10.0 mi SW 10.4 mph - N/A   Clear
6:30 PM 14.0 °F 3.9 °F - N/A% 30.17 in 10.0 mi SW 6.9 mph - N/A   Partly Cloudy
6:50 PM 14.0 °F 2.9 °F - N/A% 30.18 in 9.0 mi SW 8.1 mph 17.3 mph N/A Snow Light Snow
7:10 PM 14.0 °F 3.9 °F - N/A% 30.19 in 9.0 mi SSW 6.9 mph - N/A Snow Light Snow
7:30 PM 14.0 °F 2.0 °F - N/A% 30.20 in 3.0 mi SSW 9.2 mph - N/A Snow Light Snow
7:50 PM 15.8 °F 2.7 °F - N/A% 30.20 in 5.0 mi SSW 11.5 mph - N/A   Haze
8:10 PM 15.8 °F 2.7 °F - N/A% 30.21 in 4.0 mi SW 11.5 mph 17.3 mph N/A Snow Light Snow
8:30 PM 14.0 °F -0.2 °F - N/A% 30.22 in 6.0 mi SW 12.7 mph - N/A   Haze
8:50 PM 14.0 °F -0.8 °F - N/A% 30.23 in 10.0 mi SW 13.8 mph 19.6 mph N/A   Mostly Cloudy
9:10 PM 14.0 °F 2.9 °F - N/A% 30.23 in 8.0 mi SSW 8.1 mph - N/A   Overcast
9:30 PM 14.0 °F 2.9 °F - N/A% 30.24 in 10.0 mi SSW 8.1 mph 17.3 mph N/A   Scattered Clouds
9:50 PM 12.2 °F -3.1 °F - N/A% 30.24 in 10.0 mi SSW 13.8 mph 18.4 mph N/A   Scattered Clouds
10:10 PM 14.0 °F 0.5 °F - N/A% 30.24 in 10.0 mi SW 11.5 mph 17.3 mph N/A Snow Light Snow
10:30 PM 15.8 °F 5.1 °F - N/A% 30.25 in 9.0 mi SW 8.1 mph - N/A   Overcast
11:10 PM 15.8 °F 6.1 °F - N/A% 30.26 in 8.0 mi WSW 6.9 mph - N/A Snow Light Snow